This is the latest recevied weather packets stored in our database for station/object N7MLR. If no packets are shown the sender has not sent any weather packets the latest 10 day(s).
| Time | Temp. | Humidity | Pressure | Rain* | Wind** | Luminosity | Snow |
|---|---|---|---|---|---|---|---|
| 1777931332 | 26.11° C | 65% | 1010.2 hPa | 0 mm | - | 221 W/m² | - |
| 1777931029 | 26.11° C | 63% | 1010 hPa | 0 mm | - | 211 W/m² | - |
| 1777930725 | 26.67° C | 64% | 1010.4 hPa | 0 mm | - | 271 W/m² | - |
| 1777930421 | 26.67° C | 64% | 1010.1 hPa | 0 mm | - | 367 W/m² | - |
| 1777930119 | 26.11° C | 65% | 1010.2 hPa | 0 mm | - | 390 W/m² | - |
| 1777929814 | 26.11° C | 64% | 1010.1 hPa | 0 mm | - | 337 W/m² | - |
| 1777929513 | 26.11° C | 64% | 1010.5 hPa | 0 mm | - | 227 W/m² | - |
| 1777929208 | 26.11° C | 64% | 1010.4 hPa | 0 mm | - | 298 W/m² | - |
| 1777928906 | 26.11° C | 64% | 1010.4 hPa | 0 mm | - | 289 W/m² | - |
| 1777928603 | 26.67° C | 62% | 1010.7 hPa | 0 mm | - | 388 W/m² | - |
| 1777928300 | 26.67° C | 63% | 1010.7 hPa | 0 mm | - | 282 W/m² | - |
| 1777927998 | 26.67° C | 62% | 1011.1 hPa | 0 mm | - | 321 W/m² | - |
| 1777927696 | 26.67° C | 62% | 1010.9 hPa | 0 mm | - | 792 W/m² | - |
| 1777927394 | 26.67° C | 63% | 1010.8 hPa | 0 mm | - | 358 W/m² | - |
| 1777927093 | 26.67° C | 63% | 1011.2 hPa | 0 mm | - | 343 W/m² | - |
| 1777926790 | 26.11° C | 63% | 1011.2 hPa | 0 mm | - | 294 W/m² | - |
| 1777926484 | 26.67° C | 62% | 1011.5 hPa | 0 mm | - | 304 W/m² | - |
| 1777926182 | 26.67° C | 63% | 1011.5 hPa | 0 mm | - | 586 W/m² | - |
| 1777925879 | 26.67° C | 63% | 1011.4 hPa | 0 mm | - | 367 W/m² | - |
| 1777925576 | 26.67° C | 63% | 1011.7 hPa | 0 mm | - | 848 W/m² | - |
| 1777925274 | 26.67° C | 63% | 1011.3 hPa | 0 mm | - | 850 W/m² | - |
| 1777924969 | 26.11° C | 63% | 1011.8 hPa | 0 mm | - | 285 W/m² | - |
| 1777924666 | 27.22° C | 60% | 1011.8 hPa | 0 mm | - | 294 W/m² | - |
| 1777924362 | 26.67° C | 63% | 1011.8 hPa | 0 mm | - | 822 W/m² | - |
| 1777924059 | 26.67° C | 62% | 1011.7 hPa | 0 mm | - | 332 W/m² | - |
* Rain latest hour (hover to see other rain measurements)
** Current wind speed in m/s (hover to see current wind gust speed)